This is the latest recevied weather packets stored in our database for station/object KO4FR. If no packets are shown the sender has not sent any weather packets the latest 10 day(s).
| Time | Temp. | Humidity | Pressure | Rain* | Wind** | Luminosity | Snow |
|---|---|---|---|---|---|---|---|
| 1777661691 | 18.89° C | 38% | 1014 hPa | 0 mm | - | - | - |
| 1777661391 | 18.89° C | 36% | 1014.2 hPa | 0 mm | - | - | - |
| 1777661091 | 18.89° C | 37% | 1014.4 hPa | 0 mm | - | - | - |
| 1777660791 | 19.44° C | 36% | 1014.5 hPa | 0 mm | - | - | - |
| 1777660491 | 19.44° C | 37% | 1014.5 hPa | 0 mm | - | - | - |
| 1777660191 | 18.89° C | 38% | 1014.6 hPa | 0 mm | - | - | - |
| 1777659891 | 18.33° C | 36% | 1014.6 hPa | 0 mm | - | - | - |
| 1777659591 | 18.89° C | 37% | 1014.8 hPa | 0 mm | - | - | - |
| 1777659290 | 18.89° C | 35% | 1015 hPa | 0 mm | - | - | - |
| 1777658991 | 18.89° C | 35% | 1014.8 hPa | 0 mm | - | - | - |
| 1777658691 | 19.44° C | 36% | 1014.8 hPa | 0 mm | - | - | - |
| 1777658391 | 18.89° C | 36% | 1014.8 hPa | 0 mm | - | - | - |
| 1777658091 | 18.89° C | 36% | 1014.9 hPa | 0 mm | - | - | - |
| 1777657791 | 18.89° C | 35% | 1015 hPa | 0 mm | - | - | - |
| 1777657491 | 18.33° C | 36% | 1015 hPa | 0 mm | - | - | - |
| 1777657191 | 18.33° C | 38% | 1015.1 hPa | 0 mm | - | - | - |
| 1777656891 | 18.33° C | 38% | 1015.1 hPa | 0 mm | - | - | - |
| 1777656591 | 17.78° C | 38% | 1015.1 hPa | 0 mm | - | - | - |
| 1777656291 | 17.78° C | 38% | 1015.2 hPa | 0 mm | - | - | - |
| 1777655990 | 18.33° C | 36% | 1015.4 hPa | 0 mm | - | - | - |
| 1777655691 | 18.33° C | 38% | 1015.3 hPa | 0 mm | - | - | - |
| 1777655391 | 17.78° C | 37% | 1015.4 hPa | 0 mm | - | - | - |
| 1777655091 | 17.78° C | 38% | 1015.5 hPa | 0 mm | - | - | - |
| 1777654791 | 17.78° C | 38% | 1015.5 hPa | 0 mm | - | - | - |
| 1777654490 | 17.78° C | 37% | 1015.7 hPa | 0 mm | - | - | - |
* Rain latest hour (hover to see other rain measurements)
** Current wind speed in m/s (hover to see current wind gust speed)